Volver al catálogo

CZ-6A DEB

ActivoSSO
NORAD 54339·DEBRIS·🇨🇳 China

Lanzado Nov 11, 2022 desde Taiyuan Satellite Launch Center

Loading…

Próximos Pases (próximas 24 horas)

TLE

ActualizadoSource: Space-Track

Época: Sep 14, 2026, 18:30 UTC

1 54339U 22151CJ  26257.77104284  .00000173  00000-0  11888-3 0  9990
2 54339  98.8382 257.0631 0043532  86.2889 274.3259 14.11226101197217

Sigue CZ-6A DEB en tiempo real con AllMySat

Download on the App Store